Flag for Germany Weather past 2 weeks in Dortmund, North Rhine-Westphalia, Germany

Now
45 °F

Overcast.


Feels Like: 37 °F
Forecast: 47 / 53 °F
Wind: 20 mph from Southwest

Location: Dortmund / Wickede

Current Time: Dec 21, 2014 at 6:40:28 PM

Latest Report: Dec 21, 2014 at 5:50 PM


Visibility: 5 mi

Pressure: 30.21 "Hg

Humidity: 81%

Dew point: 39 °F

Location of DortmundLocation

Historic Weather in Dortmund — Graph

°F

Dortmund temperature yesterday

Maximum temperature yesterday: 43 °F (at 10:50 AM)
Minimum temperature yesterday: 37 °F (at 5:50 PM)
Average temperature yesterday: 41 °F

Past Weeks' High & Low Weather Summary

 TemperatureHumidityPressure
High54 °F (Dec 18, 5:20 PM)93% (Dec 6, 7:50 PM)30.36 "Hg (Dec 6, 7:50 PM)
Low32 °F (Dec 14, 10:50 PM)57% (Dec 7, 2:20 PM)29.39 "Hg (Dec 12, 12:50 PM)
Average41 °F82%29.93 "Hg
* Reported Dec 6 5:20 PM — Dec 21 5:20 PM, Dortmund, Weather by CustomWeather, © 2014

Note: Actual official high and low records may vary slightly from our data, if they occured in-between our weather recording intervals... More about our weather records

Advertising

Dortmund weather history for previous 24 hours

 ConditionsComfort  
Time TempWeatherWind HumidityBarometerVisibility
5:20 PM
Dec 21
45 °FPassing clouds.22 mph81%30.21 "Hg4 mi
4:50 PM43 °FPassing clouds.21 mph87%30.24 "Hg5 mi
4:20 PM43 °FPartly sunny.21 mph87%30.24 "Hg6 mi
3:50 PM43 °FPartly sunny.22 mph87%30.24 "Hg6 mi
3:20 PM43 °FPartly sunny.22 mph81%30.24 "HgN/A
2:50 PM43 °FPartly sunny.20 mph81%30.27 "HgN/A
2:20 PM45 °FPartly sunny.18 mph76%30.27 "HgN/A
1:50 PM43 °FPartly sunny.20 mph76%30.30 "HgN/A
1:20 PM43 °FScattered clouds.18 mph76%30.30 "HgN/A
12:50 PM43 °FPartly sunny.18 mph76%30.30 "HgN/A
12:20 PM43 °FPartly sunny.18 mph76%30.33 "HgN/A
11:50 AM43 °FPartly sunny.18 mph81%30.33 "HgN/A
11:20 AM43 °FScattered clouds.20 mph81%30.33 "HgN/A
10:50 AM43 °FScattered clouds.16 mph81%30.36 "HgN/A
10:20 AM41 °FScattered clouds.17 mph87%30.36 "HgN/A
9:50 AM41 °FScattered clouds.15 mph87%30.33 "HgN/A
9:20 AM41 °FScattered clouds.16 mph87%30.36 "HgN/A
8:50 AM41 °FScattered clouds.13 mph87%30.36 "HgN/A
8:20 AM41 °FPassing clouds.16 mph87%30.36 "HgN/A
7:50 AM41 °FPassing clouds.15 mph87%30.36 "HgN/A
7:20 AM41 °FPassing clouds.15 mph81%30.36 "HgN/A
6:50 AM39 °FPassing clouds.14 mph87%30.36 "HgN/A
6:20 AM39 °FPassing clouds.13 mph87%30.33 "HgN/A
5:50 AM39 °FClear.13 mph87%30.36 "Hg10 mi
5:20 AM39 °FPassing clouds.10 mph87%30.36 "HgN/A
10:50 PM
Dec 20
39 °FPassing clouds.9 mph87%30.27 "HgN/A
10:20 PM39 °FPassing clouds.9 mph87%30.24 "HgN/A
9:50 PM39 °FLight rain. Partly cloudy.8 mph87%30.24 "HgN/A
9:20 PM39 °FLight rain. Passing clouds.8 mph87%30.21 "HgN/A
8:50 PM39 °FLight rain. Passing clouds.8 mph87%30.21 "HgN/A
8:20 PM39 °FLight rain. Passing clouds.10 mph81%30.18 "HgN/A
7:50 PM41 °FLight rain. Passing clouds.12 mph81%30.15 "HgN/A
7:20 PM41 °FLight rain. Passing clouds.13 mph81%30.12 "HgN/A
6:50 PM43 °FLight rain. Passing clouds.14 mph76%30.12 "HgN/A
6:20 PM41 °FLight rain. Passing clouds.13 mph81%30.09 "HgN/A
Weather by CustomWeather, © 2014

See weather overviewHow to use our weather pages